CW2972 Weather Reports


time (UTC)temp
C
wind
direction
speed
KPH
gust
KPH
rain 1hr
cm
rain 24hr
cm
rain mn
cm
humidity
%
barometer
mb
20260509003020 19 0 0.0 0.0 0.00 0.03 0.03 58 1011.5
20260509002821 19 0 0.0 0.0 0.00 0.03 0.03 58 1011.6
20260509002620 20 0 0.0 0.0 0.00 0.03 0.03 57 1011.6
20260509002420 20 0 0.0 0.0 0.00 0.03 0.03 57 1011.5
20260509002220 20 0 0.0 0.0 0.00 0.03 0.03 57 1011.5
20260509002020 20 0 0.0 0.0 0.00 0.03 0.03 56 1011.5
20260509001820 20 0 0.0 0.0 0.00 0.03 0.03 56 1011.5
20260509001620 20 0 0.0 0.0 0.00 0.03 0.03 56 1011.5
20260509001420 20 0 0.0 0.0 0.00 0.03 0.03 55 1011.5
20260509001220 20 199 0.0 1.6 0.00 0.03 0.03 55 1011.5
20260509001020 20 199 0.0 1.6 0.00 0.03 0.03 55 1011.5
20260509000820 20 204 0.0 1.6 0.00 0.03 0.03 55 1011.5
20260509000641 20 204 0.0 1.6 0.00 0.03 0.03 54 1011.5
20260509000420 21 209 0.0 1.6 0.00 0.03 0.03 54 1011.5
20260509000221 21 214 0.0 1.6 0.00 0.03 0.03 54 1011.5
20260509000021 21 214 0.0 1.6 0.00 0.03 0.03 53 1011.6
20260508235841 21 214 0.0 1.6 0.00 0.03 0.03 53 1011.5
20260508235620 21 214 0.0 1.6 0.00 0.03 0.03 52 1011.6
20260508235441 21 214 0.0 1.6 0.00 0.03 0.03 52 1011.6
20260508235220 21 213 0.0 1.6 0.00 0.03 0.03 52 1011.6
20260508235020 21 213 0.0 1.6 0.00 0.03 0.03 51 1011.6
20260508234841 21 213 0.0 1.6 0.00 0.03 0.03 51 1011.6
20260508234641 21 213 0.0 1.6 0.00 0.03 0.03 52 1011.7
20260508234420 21 177 0.0 1.6 0.00 0.03 0.03 51 1011.7
20260508234220 21 177 0.0 1.6 0.00 0.03 0.03 51 1011.8
20260508234020 21 174 0.0 1.6 0.00 0.03 0.03 51 1011.8
20260508233820 21 188 0.0 1.6 0.00 0.03 0.03 50 1011.8
20260508233620 21 185 0.0 1.6 0.00 0.03 0.03 50 1011.8
20260508233420 21 189 0.0 1.6 0.00 0.03 0.03 50 1011.8
20260508233220 21 189 0.0 1.6 0.00 0.03 0.03 49 1011.8
20260508233043 21 189 0.0 1.6 0.00 0.03 0.03 49 1011.9
20260508232841 21 167 0.0 1.6 0.00 0.03 0.03 49 1011.9
20260508232620 21 172 0.0 1.6 0.00 0.03 0.03 49 1011.9
20260508232420 21 172 0.0 1.6 0.00 0.03 0.03 49 1012.0
20260508232220 21 172 0.0 1.6 0.00 0.03 0.03 48 1012.0
20260508232020 21 171 0.0 1.6 0.00 0.03 0.03 48 1012.0
20260508231820 21 171 0.0 1.6 0.00 0.03 0.03 48 1012.1
20260508231641 22 171 0.0 1.6 0.00 0.03 0.03 48 1012.1
20260508231441 22 0 0.0 0.0 0.00 0.03 0.03 48 1012.2
20260508231220 22 0 0.0 0.0 0.00 0.03 0.03 48 1012.2
20260508231041 22 169 0.0 1.6 0.00 0.03 0.03 48 1012.2
20260508230820 22 170 0.0 1.6 0.00 0.03 0.03 48 1012.2
20260508230620 22 165 0.0 1.6 0.00 0.03 0.03 46 1012.2
20260508230420 22 174 0.0 1.6 0.00 0.03 0.03 47 1012.3
20260508230220 22 182 0.0 1.6 0.00 0.03 0.03 45 1012.3
20260508230020 22 186 0.0 1.6 0.00 0.03 0.03 46 1012.3
20260508225820 22 190 0.0 1.6 0.00 0.03 0.03 46 1012.4
20260508225620 22 211 0.0 1.6 0.00 0.03 0.03 47 1012.4
20260508225420 22 205 0.0 1.6 0.00 0.03 0.03 47 1012.4
20260508225220 22 194 0.0 1.6 0.00 0.03 0.03 48 1012.4
20260508225020 22 196 1.6 1.6 0.00 0.03 0.03 48 1012.3
20260508224821 22 190 1.6 3.2 0.00 0.03 0.03 47 1012.4
20260508224620 22 186 1.6 3.2 0.00 0.03 0.03 47 1012.4
20260508224420 22 194 1.6 3.2 0.00 0.03 0.03 46 1012.4
20260508224220 22 183 1.6 3.2 0.00 0.03 0.03 46 1012.4
20260508224020 22 181 1.6 3.2 0.00 0.03 0.03 46 1012.4
20260508223820 22 181 1.6 3.2 0.00 0.03 0.03 45 1012.4
20260508223620 22 182 1.6 3.2 0.00 0.03 0.03 45 1012.5
20260508223420 22 187 1.6 4.8 0.00 0.03 0.03 45 1012.4
20260508223220 22 195 1.6 4.8 0.00 0.03 0.03 46 1012.4
20260508223041 22 189 1.6 4.8 0.00 0.03 0.03 45 1012.5
20260508222820 22 190 1.6 4.8 0.00 0.03 0.03 44 1012.4
20260508222641 22 197 1.6 4.8 0.00 0.03 0.03 45 1012.4
20260508222420 22 195 1.6 4.8 0.00 0.03 0.03 47 1012.4
20260508222220 22 190 1.6 4.8 0.00 0.03 0.03 45 1012.4
20260508222020 22 194 1.6 4.8 0.00 0.03 0.03 45 1012.3
20260508221820 22 188 1.6 4.8 0.00 0.03 0.03 45 1012.3
20260508221641 22 174 1.6 4.8 0.00 0.03 0.03 46 1012.3
20260508221420 22 165 1.6 4.8 0.00 0.03 0.03 45 1012.3
20260508221220 22 168 1.6 4.8 0.00 0.03 0.03 45 1012.3
20260508221020 22 177 1.6 4.8 0.00 0.03 0.03 44 1012.3
20260508220841 22 180 1.6 4.8 0.00 0.03 0.03 45 1012.3
20260508220641 22 192 1.6 4.8 0.00 0.03 0.03 46 1012.3
20260508220420 22 216 1.6 4.8 0.00 0.03 0.03 46 1012.3
20260508220241 22 222 1.6 4.8 0.00 0.03 0.03 46 1012.3
20260508220020 22 223 1.6 4.8 0.00 0.03 0.03 46 1012.3
20260508215841 22 220 1.6 4.8 0.00 0.03 0.03 46 1012.4
20260508215641 22 212 1.6 4.8 0.00 0.03 0.03 45 1012.3
20260508215420 22 209 1.6 3.2 0.00 0.03 0.03 45 1012.3
20260508215220 22 199 0.0 3.2 0.00 0.03 0.03 48 1012.3
20260508215020 22 189 0.0 3.2 0.00 0.03 0.03 46 1012.3
20260508214820 22 192 0.0 3.2 0.00 0.03 0.03 45 1012.3
20260508214620 22 198 1.6 3.2 0.00 0.03 0.03 46 1012.3
20260508214420 22 205 1.6 3.2 0.00 0.03 0.03 45 1012.4
20260508214220 22 212 1.6 3.2 0.00 0.03 0.03 46 1012.4
20260508214041 22 214 1.6 3.2 0.00 0.03 0.03 45 1012.3
20260508213820 22 213 0.0 3.2 0.00 0.03 0.03 43 1012.4
20260508213620 22 211 0.0 3.2 0.00 0.03 0.03 45 1012.4
20260508213420 22 208 0.0 3.2 0.00 0.03 0.03 45 1012.5
20260508213220 22 207 0.0 3.2 0.00 0.03 0.03 46 1012.5
20260508213020 22 209 0.0 3.2 0.00 0.03 0.03 46 1012.6
20260508212841 22 213 1.6 4.8 0.00 0.03 0.03 47 1012.6
20260508212620 22 219 1.6 4.8 0.00 0.03 0.03 47 1012.6
20260508212420 22 221 1.6 4.8 0.00 0.03 0.03 45 1012.5
20260508212241 22 220 1.6 4.8 0.00 0.03 0.03 46 1012.5
20260508212041 22 218 1.6 4.8 0.00 0.03 0.03 46 1012.6
20260508211821 22 218 1.6 4.8 0.00 0.03 0.03 47 1012.6
20260508211620 22 227 1.6 4.8 0.00 0.03 0.03 47 1012.7
20260508211420 22 227 1.6 4.8 0.00 0.03 0.03 46 1012.7
20260508211221 22 217 1.6 4.8 0.00 0.03 0.03 46 1012.7
20260508211020 22 207 1.6 4.8 0.00 0.03 0.03 47 1012.7
20260508210820 22 206 1.6 4.8 0.00 0.03 0.03 45 1012.7
20260508210641 22 197 1.6 4.8 0.00 0.03 0.03 48 1012.8
20260508210420 22 198 1.6 3.2 0.00 0.03 0.03 46 1012.8
20260508210220 22 212 1.6 3.2 0.00 0.03 0.03 48 1012.8
20260508210020 22 232 1.6 3.2 0.00 0.03 0.03 48 1012.9
20260508205820 22 233 1.6 3.2 0.00 0.03 0.03 46 1012.9
20260508205620 22 229 1.6 4.8 0.00 0.03 0.03 48 1012.9
20260508205420 22 215 1.6 4.8 0.00 0.03 0.03 47 1012.9
20260508205220 22 218 1.6 4.8 0.00 0.03 0.03 47 1013.0
20260508205020 22 218 1.6 6.4 0.00 0.03 0.03 45 1013.0
20260508204820 22 215 1.6 6.4 0.00 0.03 0.03 46 1013.0
20260508204641 22 211 0.0 6.4 0.00 0.03 0.03 47 1013.0
20260508204420 22 211 0.0 6.4 0.00 0.03 0.03 47 1013.0
20260508204220 22 202 0.0 6.4 0.00 0.03 0.03 46 1013.0
20260508204020 22 197 1.6 3.2 0.00 0.03 0.03 47 1013.1
20260508203841 22 196 1.6 4.8 0.00 0.03 0.03 46 1013.1
20260508203641 22 226 1.6 4.8 0.00 0.03 0.03 46 1013.2
20260508203420 22 223 1.6 4.8 0.00 0.03 0.03 47 1013.2
20260508203220 22 223 1.6 4.8 0.00 0.03 0.03 48 1013.2
20260508203041 22 221 1.6 6.4 0.00 0.03 0.03 45 1013.3
20260508202820 22 212 1.6 6.4 0.00 0.03 0.03 46 1013.2
20260508202620 22 205 1.6 6.4 0.00 0.03 0.03 46 1013.3
20260508202421 22 207 1.6 6.4 0.00 0.03 0.03 46 1013.3
20260508202221 22 212 1.6 6.4 0.00 0.03 0.03 47 1013.3
20260508202020 22 221 1.6 4.8 0.00 0.03 0.03 46 1013.3
20260508201820 22 229 1.6 4.8 0.00 0.03 0.03 47 1013.3
20260508201620 22 231 1.6 8.0 0.00 0.03 0.03 46 1013.4
20260508201420 22 229 1.6 8.0 0.00 0.03 0.03 48 1013.5
20260508201241 22 224 1.6 8.0 0.00 0.03 0.03 45 1013.5
20260508201020 22 220 1.6 8.0 0.00 0.03 0.03 47 1013.6
20260508200820 22 215 1.6 8.0 0.00 0.03 0.03 46 1013.6
20260508200620 22 209 1.6 4.8 0.00 0.03 0.03 46 1013.6
20260508200420 22 205 1.6 4.8 0.00 0.03 0.03 45 1013.6
20260508200241 22 195 0.0 3.2 0.00 0.03 0.03 47 1013.7
20260508200020 22 188 0.0 3.2 0.00 0.03 0.03 47 1013.7
20260508195841 22 202 0.0 3.2 0.00 0.03 0.03 47 1013.7
20260508195620 22 230 0.0 3.2 0.00 0.03 0.03 48 1013.8
20260508195420 22 243 0.0 3.2 0.00 0.03 0.03 50 1013.8
20260508195220 22 246 0.0 3.2 0.00 0.03 0.03 49 1013.8
20260508195020 22 243 0.0 3.2 0.00 0.05 0.03 47 1013.9
20260508194820 22 238 1.6 3.2 0.00 0.05 0.03 48 1013.9
20260508194641 22 227 1.6 4.8 0.00 0.05 0.03 51 1014.0
20260508194420 22 216 1.6 6.4 0.00 0.05 0.03 51 1014.0
20260508194220 22 219 1.6 6.4 0.00 0.05 0.03 48 1014.0
20260508194020 22 211 1.6 6.4 0.00 0.05 0.03 47 1014.1
20260508193841 22 209 1.6 6.4 0.00 0.05 0.03 45 1014.2
20260508193641 22 208 1.6 6.4 0.00 0.05 0.03 45 1014.2
20260508193420 22 205 1.6 6.4 0.00 0.05 0.03 46 1014.2
20260508193220 22 199 1.6 4.8 0.00 0.05 0.03 49 1014.2
20260508193020 22 214 1.6 3.2 0.00 0.05 0.03 47 1014.2
20260508192820 22 216 1.6 3.2 0.00 0.05 0.03 48 1014.3
20260508192620 21 219 1.6 4.8 0.00 0.05 0.03 48 1014.2
20260508192420 21 217 1.6 4.8 0.00 0.05 0.03 48 1014.2
20260508192220 21 214 1.6 4.8 0.00 0.05 0.03 49 1014.4
20260508192041 21 212 1.6 6.4 0.00 0.05 0.03 48 1014.4
20260508191820 21 214 1.6 8.0 0.00 0.05 0.03 48 1014.4
20260508191620 21 215 1.6 8.0 0.00 0.05 0.03 48 1014.5
20260508191420 21 213 1.6 8.0 0.00 0.05 0.03 47 1014.5
20260508191241 21 202 1.6 8.0 0.00 0.05 0.03 46 1014.5
20260508191041 21 200 1.6 8.0 0.00 0.05 0.03 48 1014.5
20260508190842 21 198 1.6 8.0 0.00 0.05 0.03 49 1014.6
20260508190620 21 185 1.6 6.4 0.00 0.05 0.03 49 1014.6
20260508190420 21 184 1.6 6.4 0.00 0.05 0.03 48 1014.6
20260508190220 21 190 3.2 6.4 0.00 0.05 0.03 50 1014.6
20260508190041 21 199 3.2 6.4 0.00 0.05 0.03 50 1014.7
20260508185820 21 193 3.2 6.4 0.00 0.05 0.03 50 1014.7
20260508185620 21 173 3.2 9.7 0.00 0.05 0.03 53 1014.7
20260508185420 21 173 3.2 9.7 0.00 0.05 0.03 49 1014.7
20260508185241 21 175 3.2 9.7 0.00 0.05 0.03 49 1014.7
20260508185020 21 168 3.2 9.7 0.00 0.05 0.03 49 1014.8
20260508184841 21 172 3.2 9.7 0.00 0.05 0.03 49 1014.7
20260508184620 21 190 3.2 6.4 0.00 0.05 0.03 50 1014.8
20260508184420 21 195 1.6 6.4 0.00 0.05 0.03 48 1014.8
20260508184220 21 203 1.6 6.4 0.00 0.05 0.03 48 1014.9
20260508184021 21 204 1.6 6.4 0.00 0.05 0.03 50 1014.9
20260508183820 21 209 1.6 6.4 0.00 0.05 0.03 49 1014.9
20260508183620 21 204 1.6 6.4 0.00 0.05 0.03 49 1015.0
20260508183420 21 209 1.6 6.4 0.00 0.05 0.03 50 1015.1
20260508183220 21 205 1.6 6.4 0.00 0.05 0.03 48 1015.1
20260508183020 21 199 1.6 6.4 0.00 0.05 0.03 50 1015.1
20260508182820 21 198 1.6 6.4 0.00 0.05 0.03 49 1015.1
20260508182620 21 214 1.6 6.4 0.00 0.05 0.03 51 1015.1
20260508182420 21 213 1.6 6.4 0.00 0.05 0.03 49 1015.1
20260508182220 21 214 1.6 6.4 0.00 0.05 0.03 48 1015.2
20260508182020 21 219 1.6 6.4 0.00 0.05 0.03 49 1015.2
20260508181821 21 220 1.6 6.4 0.00 0.05 0.03 47 1015.2
20260508181620 21 206 1.6 6.4 0.00 0.05 0.03 48 1015.2
20260508181420 21 205 1.6 4.8 0.00 0.05 0.03 47 1015.2
20260508181221 21 200 1.6 4.8 0.00 0.05 0.03 46 1015.3
20260508181020 21 183 1.6 4.8 0.00 0.05 0.03 48 1015.3
20260508180820 21 177 1.6 4.8 0.00 0.05 0.03 46 1015.3
20260508180641 21 180 1.6 6.4 0.00 0.05 0.03 49 1015.4
20260508180420 21 186 1.6 6.4 0.00 0.05 0.03 48 1015.4
20260508180220 21 197 1.6 6.4 0.00 0.05 0.03 48 1015.4
20260508180020 21 194 1.6 6.4 0.00 0.05 0.03 48 1015.5
20260508175820 21 196 1.6 6.4 0.00 0.05 0.03 48 1015.5
20260508175620 21 207 1.6 6.4 0.00 0.05 0.03 50 1015.5
20260508175441 21 205 1.6 6.4 0.00 0.05 0.03 48 1015.5
20260508175220 21 196 1.6 6.4 0.00 0.05 0.03 49 1015.5
20260508175020 21 200 1.6 6.4 0.00 0.05 0.03 48 1015.6
20260508174841 21 206 1.6 6.4 0.00 0.05 0.03 48 1015.6
20260508174621 21 191 1.6 4.8 0.00 0.05 0.03 47 1015.6
20260508174420 21 169 1.6 4.8 0.00 0.05 0.03 45 1015.6
20260508174241 21 170 1.6 4.8 0.00 0.05 0.03 48 1015.7
20260508174020 21 173 1.6 4.8 0.00 0.05 0.03 47 1015.7
20260508173820 21 164 1.6 4.8 0.00 0.05 0.03 48 1015.7
20260508173620 21 169 1.6 4.8 0.00 0.05 0.03 46 1015.8
20260508173420 21 168 1.6 4.8 0.00 0.05 0.03 48 1015.8
20260508173241 21 165 1.6 4.8 0.00 0.05 0.03 48 1015.8
20260508173020 21 168 1.6 4.8 0.00 0.08 0.03 47 1015.9
20260508172820 21 170 1.6 4.8 0.00 0.08 0.03 47 1016.0
20260508172620 21 153 3.2 4.8 0.00 0.08 0.03 48 1016.0
20260508172420 21 163 3.2 4.8 0.00 0.08 0.03 49 1016.0
20260508172220 21 164 3.2 4.8 0.00 0.08 0.03 49 1016.1
20260508172020 21 157 3.2 6.4 0.00 0.08 0.03 47 1016.1
20260508171820 21 154 1.6 6.4 0.00 0.08 0.03 48 1016.0
20260508171643 21 160 1.6 6.4 0.00 0.08 0.03 48 1016.1
20260508171420 21 158 1.6 6.4 0.00 0.08 0.03 48 1016.1
20260508171220 21 163 1.6 6.4 0.00 0.08 0.03 47 1016.2
20260508171041 21 173 1.6 4.8 0.00 0.08 0.03 46 1016.3
20260508170820 21 177 1.6 4.8 0.00 0.08 0.03 48 1016.4
20260508170620 21 182 1.6 4.8 0.00 0.08 0.03 47 1016.4
20260508170420 21 191 1.6 4.8 0.00 0.08 0.03 47 1016.5
20260508170220 21 197 1.6 4.8 0.00 0.08 0.03 47 1016.5
20260508170020 21 201 1.6 3.2 0.00 0.08 0.03 46 1016.6
20260508165820 21 211 1.6 3.2 0.00 0.08 0.03 47 1016.6
20260508165641 21 219 1.6 3.2 0.00 0.08 0.03 46 1016.6
20260508165421 22 196 1.6 4.8 0.00 0.08 0.03 47 1016.6
20260508165220 22 179 1.6 4.8 0.00 0.08 0.03 46 1016.7
20260508165020 22 176 1.6 4.8 0.00 0.08 0.03 45 1016.8
20260508164820 22 173 1.6 4.8 0.00 0.08 0.03 46 1016.9
20260508164620 22 168 1.6 4.8 0.00 0.08 0.03 47 1016.9
20260508164420 22 178 1.6 4.8 0.00 0.08 0.03 48 1016.9
20260508164220 22 193 1.6 4.8 0.00 0.08 0.03 47 1017.0
20260508164041 22 196 1.6 4.8 0.00 0.08 0.03 46 1017.0
20260508163842 22 204 1.6 4.8 0.00 0.08 0.03 45 1017.1
20260508163620 22 204 1.6 3.2 0.00 0.08 0.03 45 1017.1
20260508163420 22 189 1.6 3.2 0.00 0.08 0.03 47 1017.2
20260508163220 22 165 1.6 4.8 0.00 0.08 0.03 47 1017.2
20260508163020 22 156 1.6 4.8 0.00 0.08 0.03 48 1017.2
20260508162820 22 154 1.6 4.8 0.00 0.08 0.03 48 1017.3
20260508162641 22 152 1.6 4.8 0.00 0.08 0.03 47 1017.3
20260508162420 22 159 1.6 4.8 0.00 0.08 0.03 48 1017.4
20260508162220 22 172 1.6 3.2 0.00 0.10 0.03 47 1017.4
20260508162020 22 195 1.6 3.2 0.00 0.10 0.03 48 1017.4
20260508161841 22 155 1.6 4.8 0.00 0.10 0.03 49 1017.5
20260508161641 21 147 1.6 4.8 0.00 0.10 0.03 49 1017.5
20260508161442 21 149 1.6 4.8 0.00 0.10 0.03 53 1017.5
20260508161220 21 151 1.6 4.8 0.00 0.10 0.03 51 1017.5
20260508161020 21 159 1.6 4.8 0.00 0.10 0.03 49 1017.5
20260508160820 22 191 1.6 4.8 0.00 0.10 0.03 49 1017.5
20260508160641 21 199 1.6 4.8 0.00 0.10 0.03 49 1017.6
20260508160420 21 194 1.6 4.8 0.00 0.10 0.03 49 1017.6
20260508160220 21 177 1.6 4.8 0.00 0.10 0.03 49 1017.6
20260508160020 21 165 1.6 4.8 0.00 0.10 0.03 50 1017.7
20260508155820 21 171 1.6 4.8 0.00 0.10 0.03 50 1017.6
20260508155620 21 170 1.6 4.8 0.00 0.10 0.03 51 1017.7
20260508155420 21 171 1.6 4.8 0.00 0.10 0.03 50 1017.7
20260508155220 21 178 1.6 4.8 0.00 0.10 0.03 49 1017.7
20260508155020 21 190 1.6 4.8 0.00 0.10 0.03 49 1017.7
20260508154820 21 181 1.6 4.8 0.00 0.10 0.03 48 1017.7
20260508154620 21 186 1.6 4.8 0.00 0.10 0.03 50 1017.7
20260508154420 21 182 1.6 4.8 0.00 0.10 0.03 50 1017.7
20260508154220 21 175 1.6 4.8 0.00 0.10 0.03 53 1017.7
20260508154020 21 164 1.6 4.8 0.00 0.10 0.03 52 1017.7
20260508153820 21 163 1.6 4.8 0.00 0.10 0.03 51 1017.8
20260508153642 21 158 1.6 8.0 0.00 0.10 0.03 50 1017.8
20260508153420 21 158 1.6 8.0 0.00 0.10 0.03 53 1017.8
20260508153221 21 159 1.6 8.0 0.00 0.10 0.03 53 1017.9
20260508153020 21 164 1.6 8.0 0.00 0.10 0.03 51 1017.8
20260508152841 21 167 1.6 8.0 0.00 0.10 0.03 51 1017.9
20260508152620 21 170 1.6 4.8 0.00 0.10 0.03 54 1017.9
20260508152420 21 176 1.6 4.8 0.00 0.10 0.03 52 1017.9
20260508152220 21 179 1.6 4.8 0.00 0.10 0.03 52 1017.9
20260508152020 21 182 1.6 4.8 0.00 0.10 0.03 52 1017.9
20260508151820 21 184 1.6 4.8 0.00 0.10 0.03 51 1017.9
20260508151641 21 184 1.6 4.8 0.00 0.10 0.03 53 1017.9
20260508151421 21 176 1.6 3.2 0.00 0.10 0.03 54 1017.9
20260508151220 21 170 1.6 3.2 0.00 0.10 0.03 55 1017.9
20260508151020 21 166 1.6 3.2 0.00 0.10 0.03 53 1017.9
20260508150820 21 158 1.6 3.2 0.00 0.10 0.03 53 1017.9
20260508150641 21 161 1.6 3.2 0.00 0.10 0.03 55 1017.9
20260508150420 21 167 1.6 3.2 0.00 0.10 0.03 56 1017.9
20260508150220 21 164 1.6 3.2 0.00 0.10 0.03 56 1017.9
20260508150020 21 162 1.6 3.2 0.00 0.10 0.03 53 1017.9
20260508145820 21 172 1.6 3.2 0.00 0.10 0.03 54 1018.0
20260508145620 21 173 1.6 3.2 0.00 0.10 0.03 53 1018.0
20260508145420 21 181 1.6 3.2 0.00 0.13 0.03 53 1018.0
20260508145220 21 190 1.6 3.2 0.00 0.13 0.03 53 1018.0
20260508145020 21 202 1.6 3.2 0.00 0.13 0.03 53 1018.1
20260508144820 20 210 1.6 3.2 0.00 0.13 0.03 53 1018.0
20260508144620 20 213 1.6 4.8 0.00 0.13 0.03 54 1018.0
20260508144420 20 215 1.6 4.8 0.00 0.13 0.03 54 1018.1
20260508144220 20 215 1.6 4.8 0.00 0.13 0.03 55 1018.1
20260508144020 20 210 1.6 4.8 0.00 0.13 0.03 54 1018.1
20260508143841 20 205 1.6 4.8 0.00 0.13 0.03 54 1018.1
20260508143620 20 181 1.6 3.2 0.00 0.13 0.03 56 1018.1
20260508143441 20 157 1.6 3.2 0.00 0.13 0.03 58 1018.2
20260508143220 20 159 1.6 3.2 0.00 0.13 0.03 58 1018.2
20260508143020 20 159 1.6 3.2 0.00 0.13 0.03 57 1018.2
20260508142841 20 160 1.6 3.2 0.00 0.13 0.03 57 1018.2
20260508142620 20 160 1.6 4.8 0.00 0.13 0.03 55 1018.3
20260508142420 20 166 1.6 4.8 0.00 0.13 0.03 55 1018.3
20260508142220 20 170 1.6 4.8 0.00 0.13 0.03 57 1018.3
20260508142020 20 166 1.6 4.8 0.00 0.13 0.03 56 1018.3
20260508141841 20 165 1.6 4.8 0.00 0.13 0.03 55 1018.3
20260508141621 20 167 1.6 3.2 0.00 0.13 0.03 55 1018.3
20260508141420 20 171 1.6 3.2 0.00 0.13 0.03 57 1018.3
20260508141220 19 184 1.6 3.2 0.00 0.13 0.03 57 1018.3
20260508141020 19 194 1.6 3.2 0.00 0.13 0.03 58 1018.2
20260508140820 19 190 1.6 3.2 0.00 0.13 0.03 59 1018.2
20260508140641 18 180 1.6 3.2 0.00 0.13 0.03 59 1018.2
20260508140420 18 173 1.6 3.2 0.00 0.13 0.03 58 1018.3
20260508140220 18 160 1.6 3.2 0.00 0.13 0.03 59 1018.3
20260508140041 18 161 1.6 3.2 0.00 0.13 0.03 58 1018.3
20260508135820 18 167 1.6 3.2 0.03 0.13 0.03 59 1018.3
20260508135641 18 165 1.6 3.2 0.03 0.13 0.03 60 1018.3
20260508135420 18 164 1.6 3.2 0.03 0.13 0.03 59 1018.4
20260508135220 18 169 1.6 3.2 0.03 0.13 0.03 60 1018.4
20260508135041 18 168 1.6 3.2 0.03 0.13 0.03 60 1018.4
20260508134820 18 164 0.0 3.2 0.03 0.13 0.03 59 1018.5
20260508134620 18 168 0.0 3.2 0.03 0.13 0.03 60 1018.5
20260508134420 18 172 0.0 3.2 0.03 0.13 0.03 62 1018.4
20260508134220 18 158 0.0 3.2 0.03 0.13 0.03 64 1018.4
20260508134020 18 158 0.0 3.2 0.03 0.13 0.03 64 1018.4
20260508133842 18 155 0.0 1.6 0.03 0.13 0.03 66 1018.4
20260508133620 17 153 0.0 1.6 0.03 0.13 0.03 68 1018.4
20260508133441 17 151 0.0 1.6 0.03 0.13 0.03 68 1018.4
20260508133220 17 148 0.0 1.6 0.03 0.13 0.03 69 1018.4
20260508133020 16 148 0.0 1.6 0.03 0.13 0.03 70 1018.4
20260508132820 16 153 0.0 3.2 0.03 0.13 0.03 70 1018.5
20260508132620 16 153 0.0 3.2 0.03 0.13 0.03 69 1018.4
20260508132420 16 153 0.0 3.2 0.03 0.13 0.03 70 1018.5
20260508132220 16 163 0.0 3.2 0.03 0.13 0.03 73 1018.4
20260508132020 15 163 0.0 3.2 0.03 0.13 0.03 73 1018.5
20260508131841 15 196 0.0 1.6 0.03 0.13 0.03 77 1018.4
20260508131620 14 196 0.0 1.6 0.03 0.13 0.03 81 1018.5
20260508131421 13 196 0.0 1.6 0.03 0.13 0.03 81 1018.4
20260508131220 13 196 0.0 1.6 0.03 0.13 0.03 83 1018.4
20260508131020 13 196 0.0 1.6 0.03 0.13 0.03 85 1018.4
20260508130820 12 196 0.0 1.6 0.03 0.13 0.03 88 1018.4
20260508130620 12 196 0.0 1.6 0.03 0.13 0.03 91 1018.5
20260508130420 11 196 0.0 1.6 0.03 0.13 0.03 92 1018.4
20260508130221 11 196 0.0 1.6 0.03 0.13 0.03 92 1018.5
20260508130020 11 196 0.0 1.6 0.03 0.13 0.03 93 1018.5
20260508125820 10 196 0.0 1.6 0.00 0.10 0.00 94 1018.5
20260508125621 10 196 0.0 1.6 0.00 0.10 0.00 95 1018.5
20260508125420 9 0 0.0 0.0 0.00 0.10 0.00 96 1018.5
20260508125220 9 0 0.0 0.0 0.00 0.10 0.00 96 1018.4
20260508125021 8 0 0.0 0.0 0.00 0.10 0.00 96 1018.4
20260508124820 8 0 0.0 0.0 0.00 0.13 0.00 96 1018.4
20260508124620 8 0 0.0 0.0 0.00 0.13 0.00 97 1018.4
20260508124420 8 0 0.0 0.0 0.00 0.13 0.00 97 1018.4
20260508124220 8 0 0.0 0.0 0.00 0.13 0.00 97 1018.4
20260508124041 7 0 0.0 0.0 0.00 0.13 0.00 97 1018.4
20260508123820 7 0 0.0 0.0 0.00 0.13 0.00 98 1018.4
20260508123620 7 0 0.0 0.0 0.00 0.13 0.00 98 1018.4
20260508123420 7 0 0.0 0.0 0.00 0.13 0.00 98 1018.3
20260508123221 7 0 0.0 0.0 0.00 0.13 0.00 98 1018.3
20260508123041 7 0 0.0 0.0 0.00 0.13 0.00 98 1018.3
20260508122841 7 0 0.0 0.0 0.00 0.13 0.00 98 1018.3
20260508122620 7 0 0.0 0.0 0.00 0.13 0.00 98 1018.3
20260508122420 7 0 0.0 0.0 0.00 0.13 0.00 98 1018.3
20260508122220 6 0 0.0 0.0 0.00 0.13 0.00 98 1018.3
20260508122020 6 0 0.0 0.0 0.00 0.13 0.00 98 1018.2
20260508121820 6 0 0.0 0.0 0.00 0.13 0.00 98 1018.3
20260508121641 6 0 0.0 0.0 0.00 0.13 0.00 98 1018.2
20260508121420 6 0 0.0 0.0 0.00 0.13 0.00 98 1018.2
20260508121221 6 0 0.0 0.0 0.00 0.13 0.00 98 1018.2
20260508121020 6 0 0.0 0.0 0.00 0.13 0.00 98 1018.1
20260508120820 6 0 0.0 0.0 0.00 0.13 0.00 98 1018.2
20260508120620 6 0 0.0 0.0 0.00 0.13 0.00 97 1018.2
20260508120420 6 0 0.0 0.0 0.00 0.13 0.00 97 1018.2
20260508120220 6 0 0.0 0.0 0.00 0.13 0.00 97 1018.2
20260508120020 6 0 0.0 0.0 0.00 0.13 0.00 97 1018.2
20260508115820 6 0 0.0 0.0 0.00 0.13 0.00 97 1018.2
20260508115620 5 0 0.0 0.0 0.00 0.13 0.00 97 1018.2
20260508115441 5 0 0.0 0.0 0.00 0.13 0.00 97 1018.2
20260508115220 5 0 0.0 0.0 0.00 0.13 0.00 97 1018.1
20260508115020 5 0 0.0 0.0 0.00 0.13 0.00 97 1018.1
20260508114820 5 0 0.0 0.0 0.00 0.13 0.00 97 1018.0
20260508114620 5 0 0.0 0.0 0.00 0.13 0.00 97 1018.0
20260508114420 5 0 0.0 0.0 0.00 0.13 0.00 97 1017.9
20260508114221 5 0 0.0 0.0 0.00 0.13 0.00 97 1017.9
20260508114041 5 0 0.0 0.0 0.00 0.13 0.00 97 1017.9
20260508113820 5 0 0.0 0.0 0.00 0.13 0.00 97 1017.9
20260508113620 5 0 0.0 0.0 0.00 0.13 0.00 97 1017.9
20260508113420 5 0 0.0 0.0 0.00 0.13 0.00 97 1017.8
20260508113220 5 0 0.0 0.0 0.00 0.13 0.00 97 1017.8
20260508113021 5 0 0.0 0.0 0.00 0.13 0.00 97 1017.8
20260508112820 5 0 0.0 0.0 0.00 0.13 0.00 97 1017.7
20260508112620 5 0 0.0 0.0 0.00 0.13 0.00 97 1017.7
20260508112441 5 0 0.0 0.0 0.00 0.13 0.00 97 1017.7
20260508112220 5 0 0.0 0.0 0.00 0.13 0.00 96 1017.8
20260508112020 5 0 0.0 0.0 0.00 0.13 0.00 96 1017.7
20260508111820 5 0 0.0 0.0 0.00 0.13 0.00 96 1017.7
20260508111641 5 0 0.0 0.0 0.00 0.13 0.00 96 1017.7
20260508111420 4 0 0.0 0.0 0.00 0.13 0.00 96 1017.7
20260508111220 4 0 0.0 0.0 0.00 0.13 0.00 96 1017.7
20260508111020 4 0 0.0 0.0 0.00 0.13 0.00 96 1017.7
20260508110820 4 0 0.0 0.0 0.00 0.13 0.00 96 1017.7
20260508110622 4 0 0.0 0.0 0.00 0.13 0.00 96 1017.6
20260508110420 4 0 0.0 0.0 0.00 0.13 0.00 96 1017.6
20260508110220 4 0 0.0 0.0 0.00 0.13 0.00 96 1017.6
20260508110020 4 0 0.0 0.0 0.00 0.13 0.00 96 1017.6
20260508105820 4 0 0.0 0.0 0.00 0.13 0.00 96 1017.5
20260508105620 4 0 0.0 0.0 0.00 0.13 0.00 96 1017.5
20260508105420 4 0 0.0 0.0 0.00 0.13 0.00 96 1017.5
20260508105220 4 0 0.0 0.0 0.00 0.13 0.00 96 1017.5
20260508105020 4 0 0.0 0.0 0.00 0.13 0.00 96 1017.5
20260508104820 4 0 0.0 0.0 0.00 0.13 0.00 96 1017.5
20260508104620 4 0 0.0 0.0 0.00 0.13 0.00 96 1017.4
20260508104420 5 0 0.0 0.0 0.00 0.13 0.00 96 1017.4
20260508104220 5 0 0.0 0.0 0.00 0.13 0.00 96 1017.4
20260508104020 5 0 0.0 0.0 0.00 0.13 0.00 96 1017.4
20260508103821 5 0 0.0 0.0 0.00 0.13 0.00 96 1017.4
20260508103620 5 0 0.0 0.0 0.00 0.13 0.00 96 1017.4
20260508103420 5 0 0.0 0.0 0.00 0.13 0.00 96 1017.4
20260508103221 5 0 0.0 0.0 0.00 0.13 0.00 96 1017.4
20260508103020 5 0 0.0 0.0 0.00 0.13 0.00 96 1017.4
20260508102820 5 0 0.0 0.0 0.00 0.13 0.00 96 1017.4
20260508102620 5 0 0.0 0.0 0.00 0.13 0.00 95 1017.4
20260508102420 5 0 0.0 0.0 0.00 0.13 0.00 96 1017.4
20260508102220 5 0 0.0 0.0 0.00 0.13 0.00 96 1017.4
20260508102041 5 0 0.0 0.0 0.00 0.13 0.00 96 1017.4
20260508101820 5 0 0.0 0.0 0.00 0.13 0.00 96 1017.4
20260508101621 5 0 0.0 0.0 0.00 0.13 0.00 96 1017.4
20260508101420 5 0 0.0 0.0 0.00 0.13 0.00 96 1017.4
20260508101221 5 0 0.0 0.0 0.00 0.13 0.00 96 1017.4
20260508101020 5 0 0.0 0.0 0.00 0.13 0.00 96 1017.4
20260508100820 5 0 0.0 0.0 0.00 0.15 0.00 96 1017.3
20260508100620 5 0 0.0 0.0 0.00 0.15 0.00 96 1017.3
20260508100420 5 0 0.0 0.0 0.00 0.15 0.00 96 1017.3
20260508100243 5 0 0.0 0.0 0.00 0.15 0.00 96 1017.3
20260508100020 5 0 0.0 0.0 0.00 0.15 0.00 96 1017.3
20260508095822 4 0 0.0 0.0 0.00 0.15 0.00 95 1017.3
20260508095620 5 0 0.0 0.0 0.00 0.15 0.00 95 1017.3
20260508095420 5 0 0.0 0.0 0.00 0.15 0.00 95 1017.3
20260508095221 5 0 0.0 0.0 0.00 0.15 0.00 95 1017.2
20260508095021 5 0 0.0 0.0 0.00 0.15 0.00 95 1017.2
20260508094821 5 0 0.0 0.0 0.00 0.15 0.00 95 1017.2
20260508094621 5 0 0.0 0.0 0.00 0.15 0.00 95 1017.2
20260508094420 5 0 0.0 0.0 0.00 0.15 0.00 95 1017.2
20260508094221 5 0 0.0 0.0 0.00 0.15 0.00 95 1017.2
20260508094021 5 0 0.0 0.0 0.00 0.15 0.00 95 1017.3
20260508093820 5 0 0.0 0.0 0.00 0.15 0.00 95 1017.2
20260508093620 5 0 0.0 0.0 0.00 0.15 0.00 95 1017.2
20260508093441 5 0 0.0 0.0 0.00 0.15 0.00 95 1017.2
20260508093241 5 0 0.0 0.0 0.00 0.15 0.00 95 1017.2
20260508093020 5 0 0.0 0.0 0.00 0.15 0.00 95 1017.2
20260508092820 5 0 0.0 0.0 0.00 0.15 0.00 95 1017.3
20260508092641 5 0 0.0 0.0 0.00 0.15 0.00 95 1017.2
20260508092420 5 0 0.0 0.0 0.00 0.15 0.00 95 1017.2
20260508092220 5 0 0.0 0.0 0.00 0.15 0.00 95 1017.2
20260508092041 5 0 0.0 0.0 0.00 0.15 0.00 95 1017.2
20260508091820 5 0 0.0 0.0 0.00 0.15 0.00 95 1017.2
20260508091622 5 0 0.0 0.0 0.00 0.15 0.00 95 1017.2
20260508091442 5 0 0.0 0.0 0.00 0.15 0.00 95 1017.2
20260508091220 5 0 0.0 0.0 0.00 0.15 0.00 95 1017.2
20260508091043 5 0 0.0 0.0 0.00 0.15 0.00 95 1017.2
20260508090820 5 0 0.0 0.0 0.00 0.15 0.00 96 1017.2
20260508090620 5 0 0.0 0.0 0.00 0.15 0.00 96 1017.1
20260508090420 5 0 0.0 0.0 0.00 0.15 0.00 95 1017.2
20260508090220 5 0 0.0 0.0 0.00 0.15 0.00 95 1017.1
20260508090021 5 0 0.0 0.0 0.00 0.15 0.00 95 1017.2
20260508085820 5 0 0.0 0.0 0.00 0.15 0.00 95 1017.2
20260508085620 5 0 0.0 0.0 0.00 0.15 0.00 95 1017.2
20260508085441 5 0 0.0 0.0 0.00 0.15 0.00 95 1017.1
20260508085220 5 0 0.0 0.0 0.00 0.15 0.00 95 1017.2
20260508085020 5 0 0.0 0.0 0.00 0.15 0.00 95 1017.2
20260508084841 5 0 0.0 0.0 0.00 0.15 0.00 95 1017.2
20260508084620 5 0 0.0 0.0 0.00 0.15 0.00 95 1017.2
20260508084420 5 0 0.0 0.0 0.00 0.15 0.00 95 1017.2
20260508084220 5 0 0.0 0.0 0.00 0.15 0.00 95 1017.2
20260508084020 5 0 0.0 0.0 0.00 0.15 0.00 95 1017.2
20260508083820 5 0 0.0 0.0 0.00 0.15 0.00 95 1017.2
20260508083622 5 0 0.0 0.0 0.00 0.15 0.00 95 1017.3
20260508083420 5 0 0.0 0.0 0.00 0.15 0.00 94 1017.4
20260508083221 5 0 0.0 0.0 0.00 0.15 0.00 94 1017.4
20260508083043 5 0 0.0 0.0 0.00 0.15 0.00 94 1017.4
20260508082841 5 0 0.0 0.0 0.00 0.15 0.00 94 1017.3
20260508082620 5 0 0.0 0.0 0.00 0.15 0.00 94 1017.3
20260508082420 5 0 0.0 0.0 0.00 0.15 0.00 94 1017.4
20260508082220 5 0 0.0 0.0 0.00 0.15 0.00 94 1017.4
20260508082020 5 0 0.0 0.0 0.00 0.15 0.00 94 1017.3
20260508081820 5 0 0.0 0.0 0.00 0.15 0.00 94 1017.3
20260508081620 5 0 0.0 0.0 0.00 0.15 0.00 94 1017.4
20260508081421 5 0 0.0 0.0 0.00 0.15 0.00 94 1017.5
20260508081220 5 0 0.0 0.0 0.00 0.15 0.00 94 1017.6
20260508081020 5 0 0.0 0.0 0.00 0.15 0.00 94 1017.6
20260508080841 5 0 0.0 0.0 0.00 0.15 0.00 94 1017.6
20260508080620 5 0 0.0 0.0 0.00 0.15 0.00 94 1017.5
20260508080420 5 0 0.0 0.0 0.00 0.15 0.00 94 1017.5
20260508080220 5 0 0.0 0.0 0.00 0.15 0.00 94 1017.5
20260508080021 5 0 0.0 0.0 0.00 0.15 0.00 94 1017.5
20260508075820 5 0 0.0 0.0 0.00 0.15 0.00 94 1017.5
20260508075620 5 0 0.0 0.0 0.00 0.15 0.00 94 1017.5
20260508075420 5 0 0.0 0.0 0.00 0.15 0.00 94 1017.5
20260508075220 5 0 0.0 0.0 0.00 0.15 0.00 94 1017.5
20260508075020 5 0 0.0 0.0 0.00 0.15 0.00 94 1017.5
20260508074822 5 0 0.0 0.0 0.00 0.15 0.00 94 1017.5
20260508074620 5 0 0.0 0.0 0.00 0.15 0.00 94 1017.5
20260508074420 5 0 0.0 0.0 0.00 0.18 0.00 94 1017.6
20260508074220 5 0 0.0 0.0 0.00 0.18 0.00 94 1017.5
20260508074022 5 0 0.0 0.0 0.00 0.18 0.00 94 1017.5
20260508073841 5 0 0.0 0.0 0.00 0.18 0.00 94 1017.5
20260508073620 5 0 0.0 0.0 0.00 0.18 0.00 94 1017.6
20260508073421 5 0 0.0 0.0 0.00 0.18 0.00 94 1017.6
20260508073223 5 0 0.0 0.0 0.00 0.18 0.00 94 1017.6
20260508073020 5 0 0.0 0.0 0.00 0.18 0.00 94 1017.6
20260508072820 5 0 0.0 0.0 0.00 0.18 0.00 93 1017.6
20260508072642 5 0 0.0 0.0 0.00 0.18 0.00 93 1017.6
20260508072420 6 0 0.0 0.0 0.00 0.18 0.00 94 1017.6
20260508072220 6 0 0.0 0.0 0.00 0.18 0.00 94 1017.6
20260508072020 6 0 0.0 0.0 0.00 0.18 0.00 94 1017.6
20260508071820 6 0 0.0 0.0 0.00 0.18 0.00 94 1017.6
20260508071642 6 0 0.0 0.0 0.00 0.18 0.00 94 1017.5
20260508071420 6 0 0.0 0.0 0.00 0.18 0.00 94 1017.6
20260508071242 6 0 0.0 0.0 0.00 0.18 0.00 93 1017.5
20260508071020 6 0 0.0 0.0 0.00 0.18 0.00 93 1017.5
20260508070820 6 0 0.0 0.0 0.00 0.18 0.00 93 1017.5
20260508070620 6 0 0.0 0.0 0.00 0.18 0.00 93 1017.5
20260508070420 6 0 0.0 0.0 0.00 0.18 0.00 93 1017.5
20260508070221 6 0 0.0 0.0 0.00 0.18 0.00 93 1017.6
20260508070022 6 0 0.0 0.0 0.00 0.18 0.00 93 1017.6
20260508065821 6 0 0.0 0.0 0.00 0.18 0.00 93 1017.6
20260508065620 6 0 0.0 0.0 0.00 0.18 0.00 93 1017.6
20260508065420 6 0 0.0 0.0 0.00 0.18 0.00 93 1017.6
20260508065220 6 0 0.0 0.0 0.00 0.18 0.00 93 1017.7
20260508065020 6 0 0.0 0.0 0.00 0.18 0.00 93 1017.7
20260508064821 6 0 0.0 0.0 0.00 0.18 0.00 93 1017.7
20260508064620 6 0 0.0 0.0 0.00 0.18 0.00 93 1017.8
20260508064421 6 0 0.0 0.0 0.00 0.18 0.00 93 1017.8
20260508064242 6 0 0.0 0.0 0.00 0.18 0.00 93 1017.8
20260508064020 6 0 0.0 0.0 0.00 0.18 0.00 92 1017.7
20260508063841 6 0 0.0 0.0 0.00 0.18 0.00 92 1017.8
20260508063641 6 0 0.0 0.0 0.00 0.18 0.00 92 1017.8
20260508063421 6 0 0.0 0.0 0.00 0.18 0.00 92 1017.7
20260508063242 6 0 0.0 0.0 0.00 0.18 0.00 92 1017.7
20260508063020 6 0 0.0 0.0 0.00 0.18 0.00 92 1017.7
20260508062822 6 0 0.0 0.0 0.00 0.18 0.00 92 1017.7
20260508062621 6 0 0.0 0.0 0.00 0.18 0.00 92 1017.7
20260508062420 6 0 0.0 0.0 0.00 0.18 0.00 92 1017.6
20260508062220 6 0 0.0 0.0 0.00 0.18 0.00 92 1017.6
20260508062020 6 0 0.0 0.0 0.00 0.18 0.00 92 1017.7
20260508061842 6 0 0.0 0.0 0.00 0.18 0.00 92 1017.7
20260508061643 6 0 0.0 0.0 0.00 0.18 0.00 92 1017.7
20260508061420 6 0 0.0 0.0 0.00 0.18 0.00 92 1017.7
20260508061222 6 0 0.0 0.0 0.00 0.18 0.00 92 1017.7
20260508061021 6 0 0.0 0.0 0.00 0.18 0.00 92 1017.7
20260508060821 6 0 0.0 0.0 0.00 0.18 0.00 92 1017.7
20260508060641 6 0 0.0 0.0 0.00 0.18 0.00 91 1017.8
20260508060420 6 0 0.0 0.0 0.00 0.18 0.00 91 1017.8
20260508060220 6 0 0.0 0.0 0.00 0.18 0.00 91 1017.9
20260508060021 6 0 0.0 0.0 0.00 0.18 0.00 91 1017.9
20260508055842 6 0 0.0 0.0 0.00 0.18 0.00 91 1017.8
20260508055620 6 0 0.0 0.0 0.00 0.18 0.00 91 1017.8
20260508055420 6 0 0.0 0.0 0.00 0.18 0.00 91 1017.7
20260508055220 6 0 0.0 0.0 0.00 0.18 0.00 91 1017.8
20260508055021 6 0 0.0 0.0 0.00 0.18 0.00 91 1017.7
20260508054842 6 0 0.0 0.0 0.00 0.18 0.00 91 1017.8
20260508054621 6 0 0.0 0.0 0.00 0.18 0.00 91 1017.8
20260508054420 6 0 0.0 0.0 0.00 0.18 0.00 91 1017.8
20260508054220 6 0 0.0 0.0 0.00 0.18 0.00 91 1017.7
20260508054020 6 0 0.0 0.0 0.00 0.20 0.00 91 1017.8
20260508053820 6 0 0.0 0.0 0.00 0.20 0.00 91 1017.8
20260508053620 6 0 0.0 0.0 0.00 0.20 0.00 90 1017.8
20260508053420 6 0 0.0 0.0 0.00 0.20 0.00 90 1017.7
20260508053220 6 0 0.0 0.0 0.00 0.20 0.00 90 1017.8
20260508053041 6 0 0.0 0.0 0.00 0.20 0.00 89 1017.8
20260508052820 6 0 0.0 0.0 0.00 0.20 0.00 89 1017.8
20260508052620 6 0 0.0 0.0 0.00 0.20 0.00 89 1017.8
20260508052420 6 0 0.0 0.0 0.00 0.20 0.00 89 1017.8
20260508052220 6 0 0.0 0.0 0.00 0.20 0.00 89 1017.8
20260508052020 6 0 0.0 0.0 0.00 0.20 0.00 89 1017.8
20260508051820 6 0 0.0 0.0 0.00 0.20 0.00 89 1017.8
20260508051622 6 0 0.0 0.0 0.00 0.20 0.00 90 1017.8
20260508051420 6 0 0.0 0.0 0.00 0.20 0.00 89 1017.9
20260508051220 7 0 0.0 0.0 0.00 0.20 0.00 89 1017.9
20260508051020 7 0 0.0 0.0 0.00 0.20 0.00 89 1017.9
20260508050820 7 0 0.0 0.0 0.00 0.20 0.00 89 1017.8
20260508050620 7 0 0.0 0.0 0.00 0.20 0.00 88 1017.8
20260508050421 7 0 0.0 0.0 0.00 0.20 0.00 88 1017.8
20260508050220 7 0 0.0 0.0 0.00 0.20 0.00 88 1017.8
20260508050021 7 0 0.0 0.0 0.00 0.20 0.00 88 1017.8
20260508045820 7 0 0.0 0.0 0.00 0.20 0.20 88 1017.8
20260508045620 7 0 0.0 0.0 0.00 0.20 0.20 88 1017.7
20260508045420 7 0 0.0 0.0 0.00 0.20 0.20 88 1017.7
20260508045220 7 0 0.0 0.0 0.00 0.20 0.20 88 1017.7
20260508045020 7 0 0.0 0.0 0.00 0.20 0.20 88 1017.8
20260508044820 7 0 0.0 0.0 0.00 0.20 0.20 88 1017.8
20260508044620 7 0 0.0 0.0 0.00 0.20 0.20 89 1017.8
20260508044420 7 0 0.0 0.0 0.00 0.20 0.20 89 1017.8
20260508044220 7 0 0.0 0.0 0.00 0.20 0.20 89 1017.9
20260508044021 7 0 0.0 0.0 0.00 0.20 0.20 89 1017.9
20260508043841 7 0 0.0 0.0 0.00 0.20 0.20 88 1017.9
20260508043641 7 0 0.0 0.0 0.00 0.20 0.20 88 1017.9
20260508043421 7 0 0.0 0.0 0.00 0.20 0.20 88 1017.9
20260508043221 7 0 0.0 0.0 0.00 0.20 0.20 87 1017.9
20260508043021 7 0 0.0 0.0 0.00 0.20 0.20 87 1017.9
20260508042842 7 0 0.0 0.0 0.00 0.20 0.20 87 1018.0
20260508042620 7 0 0.0 0.0 0.00 0.20 0.20 87 1018.0
20260508042420 7 0 0.0 0.0 0.00 0.20 0.20 87 1018.0
20260508042220 7 0 0.0 0.0 0.00 0.20 0.20 87 1018.0
20260508042021 7 0 0.0 0.0 0.00 0.20 0.20 87 1018.0
20260508041820 7 0 0.0 0.0 0.00 0.20 0.20 87 1017.9
20260508041621 7 0 0.0 0.0 0.00 0.20 0.20 87 1017.9
20260508041420 8 0 0.0 0.0 0.00 0.20 0.20 87 1018.0
20260508041220 8 0 0.0 0.0 0.00 0.20 0.20 86 1018.0
20260508041020 8 0 0.0 0.0 0.00 0.20 0.20 86 1017.9
20260508040820 8 0 0.0 0.0 0.00 0.20 0.20 86 1018.0
20260508040620 8 0 0.0 0.0 0.00 0.20 0.20 87 1018.0
20260508040420 8 0 0.0 0.0 0.00 0.20 0.20 87 1017.9
20260508040220 8 0 0.0 0.0 0.00 0.20 0.20 87 1017.9
20260508040020 8 0 0.0 0.0 0.00 0.20 0.20 87 1017.9
20260508035820 8 0 0.0 0.0 0.00 0.20 0.20 86 1017.9
20260508035620 8 0 0.0 0.0 0.00 0.20 0.20 86 1017.8
20260508035422 8 0 0.0 0.0 0.00 0.20 0.20 86 1017.8
20260508035221 8 0 0.0 0.0 0.00 0.20 0.20 86 1017.8
20260508035020 8 0 0.0 0.0 0.00 0.20 0.20 86 1017.8
20260508034820 8 0 0.0 0.0 0.00 0.23 0.20 85 1017.8
20260508034622 8 0 0.0 0.0 0.00 0.23 0.20 85 1017.7
20260508034420 8 0 0.0 0.0 0.00 0.23 0.20 85 1017.7
20260508034220 8 0 0.0 0.0 0.00 0.23 0.20 84 1017.7
20260508034021 8 0 0.0 0.0 0.00 0.23 0.20 84 1017.7
20260508033820 8 0 0.0 0.0 0.00 0.23 0.20 83 1017.7
20260508033641 8 0 0.0 0.0 0.00 0.23 0.20 83 1017.7
20260508033421 8 0 0.0 0.0 0.00 0.23 0.20 83 1017.7
20260508033221 8 0 0.0 0.0 0.00 0.23 0.20 84 1017.7
20260508033020 9 0 0.0 0.0 0.00 0.23 0.20 83 1017.7
20260508032820 9 0 0.0 0.0 0.00 0.23 0.20 83 1017.7
20260508032621 9 0 0.0 0.0 0.00 0.23 0.20 83 1017.7
20260508032421 9 0 0.0 0.0 0.00 0.23 0.20 83 1017.6
20260508032221 9 0 0.0 0.0 0.00 0.23 0.20 83 1017.6
20260508032042 9 0 0.0 0.0 0.00 0.23 0.20 83 1017.5
20260508031821 9 0 0.0 0.0 0.00 0.23 0.20 83 1017.6
20260508031620 9 0 0.0 0.0 0.00 0.23 0.20 83 1017.5
20260508031421 9 0 0.0 0.0 0.00 0.23 0.20 83 1017.5
20260508031220 9 0 0.0 0.0 0.00 0.23 0.20 83 1017.5
20260508031020 9 0 0.0 0.0 0.00 0.23 0.20 83 1017.5
20260508030821 9 0 0.0 0.0 0.00 0.23 0.20 82 1017.5
20260508030621 9 0 0.0 0.0 0.00 0.23 0.20 81 1017.5
20260508030421 9 0 0.0 0.0 0.00 0.23 0.20 81 1017.5
20260508030242 9 0 0.0 0.0 0.00 0.23 0.20 81 1017.5
20260508030020 9 0 0.0 0.0 0.00 0.23 0.20 80 1017.5
20260508025820 9 0 0.0 0.0 0.00 0.23 0.20 79 1017.4
20260508025620 9 0 0.0 0.0 0.00 0.23 0.20 79 1017.4
20260508025421 9 0 0.0 0.0 0.00 0.23 0.20 79 1017.4
20260508025220 10 0 0.0 0.0 0.00 0.23 0.20 79 1017.5
20260508025021 10 0 0.0 0.0 0.00 0.23 0.20 79 1017.5
20260508024820 10 0 0.0 0.0 0.00 0.23 0.20 78 1017.4
20260508024620 10 0 0.0 0.0 0.00 0.23 0.20 78 1017.4
20260508024420 10 0 0.0 0.0 0.00 0.23 0.20 77 1017.4
20260508024221 10 0 0.0 0.0 0.00 0.23 0.20 77 1017.4
20260508024022 10 0 0.0 0.0 0.00 0.23 0.20 77 1017.5
20260508023821 10 0 0.0 0.0 0.00 0.23 0.20 77 1017.5
20260508023621 10 0 0.0 0.0 0.00 0.23 0.20 75 1017.5
20260508023421 10 0 0.0 0.0 0.00 0.23 0.20 75 1017.6
20260508023221 10 0 0.0 0.0 0.00 0.23 0.20 75 1017.6
20260508023042 10 0 0.0 0.0 0.00 0.23 0.20 75 1017.7
20260508022821 11 0 0.0 0.0 0.00 0.23 0.20 74 1017.7
20260508022620 11 0 0.0 0.0 0.00 0.23 0.20 74 1017.7
20260508022441 11 0 0.0 0.0 0.00 0.23 0.20 74 1017.6
20260508022220 11 0 0.0 0.0 0.00 0.23 0.20 73 1017.7
20260508022020 11 0 0.0 0.0 0.00 0.23 0.20 73 1017.6
20260508021841 11 0 0.0 0.0 0.00 0.23 0.20 73 1017.6
20260508021621 11 0 0.0 0.0 0.00 0.23 0.20 74 1017.6
20260508021420 11 0 0.0 0.0 0.00 0.23 0.20 74 1017.6
20260508021220 11 0 0.0 0.0 0.00 0.23 0.20 73 1017.5
20260508021020 11 0 0.0 0.0 0.00 0.23 0.20 73 1017.5
20260508020821 11 0 0.0 0.0 0.00 0.25 0.20 72 1017.5
20260508020621 11 0 0.0 0.0 0.00 0.25 0.20 72 1017.4
20260508020420 11 0 0.0 0.0 0.00 0.25 0.20 71 1017.4
20260508020242 11 0 0.0 0.0 0.00 0.25 0.20 71 1017.4
20260508020021 11 0 0.0 0.0 0.00 0.25 0.20 71 1017.4
20260508015821 12 0 0.0 0.0 0.00 0.25 0.20 70 1017.3
20260508015620 12 0 0.0 0.0 0.00 0.25 0.20 69 1017.3
20260508015420 12 0 0.0 0.0 0.00 0.25 0.20 68 1017.2
20260508015221 12 0 0.0 0.0 0.00 0.25 0.20 67 1017.1
20260508015042 12 0 0.0 0.0 0.00 0.25 0.20 67 1017.1
20260508014820 12 0 0.0 0.0 0.00 0.25 0.20 66 1017.0
20260508014620 12 0 0.0 0.0 0.00 0.25 0.20 66 1017.0
20260508014420 12 0 0.0 0.0 0.00 0.25 0.20 65 1017.1
20260508014221 12 0 0.0 0.0 0.00 0.25 0.20 65 1017.0
20260508014021 12 0 0.0 0.0 0.00 0.25 0.20 64 1016.9
20260508013821 12 0 0.0 0.0 0.00 0.25 0.20 63 1016.9
20260508013642 12 0 0.0 0.0 0.00 0.25 0.20 62 1016.9
20260508013421 12 0 0.0 0.0 0.00 0.25 0.20 62 1016.9
20260508013221 13 0 0.0 0.0 0.00 0.25 0.20 62 1017.0
20260508013021 13 0 0.0 0.0 0.00 0.25 0.20 61 1016.9
20260508012821 13 0 0.0 0.0 0.00 0.25 0.20 61 1016.9
20260508012620 13 0 0.0 0.0 0.00 0.25 0.20 61 1016.9
20260508012420 13 0 0.0 0.0 0.00 0.25 0.20 60 1016.8
20260508012221 13 0 0.0 0.0 0.00 0.25 0.20 60 1016.9
20260508012020 13 0 0.0 0.0 0.00 0.25 0.20 60 1016.9
20260508011820 13 0 0.0 0.0 0.00 0.25 0.20 60 1016.9
20260508011620 13 0 0.0 0.0 0.00 0.25 0.20 60 1016.8
20260508011421 13 0 0.0 0.0 0.00 0.25 0.20 59 1016.8
20260508011221 13 0 0.0 0.0 0.00 0.25 0.20 59 1016.8
20260508011042 13 0 0.0 0.0 0.00 0.25 0.20 59 1016.7
20260508010842 13 0 0.0 0.0 0.00 0.25 0.20 59 1016.7
20260508010620 13 0 0.0 0.0 0.00 0.25 0.20 59 1016.8
20260508010421 13 0 0.0 0.0 0.00 0.25 0.20 59 1016.7
20260508010242 13 0 0.0 0.0 0.00 0.25 0.20 59 1016.7
20260508010021 13 0 0.0 0.0 0.00 0.25 0.20 59 1016.6
20260508005821 13 0 0.0 0.0 0.00 0.25 0.20 59 1016.6
20260508005621 13 0 0.0 0.0 0.00 0.25 0.20 59 1016.6
20260508005443 13 0 0.0 0.0 0.00 0.25 0.20 58 1016.5
20260508005221 13 0 0.0 0.0 0.00 0.25 0.20 58 1016.5
20260508005020 14 0 0.0 0.0 0.00 0.25 0.20 58 1016.4
20260508004842 14 0 0.0 0.0 0.00 0.25 0.20 57 1016.4
20260508004621 14 0 0.0 0.0 0.00 0.25 0.20 56 1016.4
20260508004442 14 0 0.0 0.0 0.00 0.25 0.20 56 1016.4
20260508004221 14 0 0.0 0.0 0.00 0.25 0.20 56 1016.4
20260508004021 15 0 0.0 0.0 0.00 0.25 0.20 56 1016.4
20260508003821 15 0 0.0 0.0 0.00 0.25 0.20 56 1016.4
20260508003621 15 0 0.0 0.0 0.00 0.25 0.20 56 1016.4
20260508003420 15 0 0.0 0.0 0.00 0.25 0.20 55 1016.4
20260508003221 15 274 0.0 1.6 0.00 0.28 0.20 55 1016.4